Miscellaneous Local Product
Issued by NWS North Platte, NE

Home | Current Version | Previous Version | Text Only | Print | Product List | Glossary On
Versions: 1 2 3 4 5 6 7 8 9 10 11 12 13 14 15 16 17 18 19 20 21 22 23 24 25 26 27 28 29 30 31 32 33 34 35 36 37 38 39 40 41 42 43 44 45 46 47 48 49 50
439
AXUS43 KLBF 201310
MISLBF


WESTERN AND NORTH CENTRAL NEBRASKA HOURLY WEATHER ROUNDUP
NATIONAL WEATHER SERVICE NORTH PLATTE NE
800 AM CDT SUN AUG 20 2017

NOTE: "FAIR" INDICATES FEW OR NO CLOUDS BELOW 12,000 FEET WITH NO
SIGNIFICANT WEATHER AND/OR OBSTRUCTIONS TO VISIBILITY.

NOTE: STATIONS NOT REPORTING VARIABLES SUCH AS SKY/WEATHER OR
PRESSURE ARE PROVIDED BY RAWS AND APRS NETWORKS AND ARE NOT UNDER
NATIONAL WEATHER SERVICE QUALITY CONTROL.

...OBSERVATIONS IN AND NEAR THE EASTERN PANHANDLE OF NEBRASKA...

CITY           SKY/WX    TMP DP  RH WIND       PRES   REMARKS
PINE RIDGE     CLEAR     59  51  75 NE5       30.03R
GORDON         FAIR      63  54  73 E7        30.03R
CHADRON        CLEAR     56  49  77 NE5       30.04R
ALLIANCE       PTCLDY    59  57  93 NE14      30.00R
SIDNEY         CLOUDY    55  46  71 NW10      30.02R
CRESCENT LAKE    N/A     61  56  83 NE15        N/A
$$

...OBSERVATIONS IN NORTHERN NEBRASKA AND FAR SOUTHERN SOUTH DAKOTA...

CITY           SKY/WX    TMP DP  RH WIND       PRES   REMARKS
WINNER         FAIR      66  63  90 NE5       29.97R
VALENTINE      SUNNY     68  61  78 N7        29.99R
THEDFORD       SUNNY     63  60  91 N3        29.98R
AINSWORTH      SUNNY     63  63  97 NW3       29.99R
O`NEILL        SUNNY     66  61  85 CALM      29.97R
ORD            SUNNY     62  59  90 NW3       29.93R
BROKEN BOW     MOSUNNY   64  61  90 N8        29.95R
VALENTINE NWR    N/A     67  66  96 NE9G18      N/A
HALSEY           N/A     62  61  97 CALM        N/A
BUTTE            N/A     65  63  92 CALM        N/A
CHAMBERS         N/A     67  62  83 CALM        N/A
EWING            N/A     64  60  86 N3          N/A
$$

...OBSERVATIONS IN SOUTHWEST NEBRASKA AND FAR NORTHEAST COLORADO...

CITY           SKY/WX    TMP DP  RH WIND       PRES   REMARKS
HOLYOKE        FAIR      61  55  82 W7        29.97R
IMPERIAL       CLEAR     61  56  83 SW7       29.94R
OGALLALA       CLEAR     65  62  91 N15       29.96R
NORTH PLATTE   SUNNY     65  62  90 N13       29.94R
MCCOOK         SUNNY     63  58  83 SW7       29.88R
LEXINGTON      SUNNY     66  63  90 E6        29.90R
STAPLETON        N/A     62  59  91 CALM        N/A
GOTHENBURG       N/A     63  59  86 CALM        N/A
CALLAWAY         N/A     60  58  95 E6          N/A
$$

...OBSERVATIONS IN CENTRAL LINCOLN COUNTY AREA...

CITY           SKY/WX    TMP DP  RH WIND       PRES   REMARKS
N.P. AIRPORT   SUNNY     65  62  90 N13       29.94R
N.P. DOWNTOWN    N/A     66  62  87 NE3G14      N/A
N.P. SOUTHEAST   N/A     65  62  89 N5G12       N/A
N.P. HILLCREST   N/A     66  62  88 NE12G22     N/A
$$

...SOME OBSERVATIONS FROM AROUND THE REGION...

CITY           SKY/WX    TMP DP  RH WIND       PRES   REMARKS
DENVER         CLOUDY    64  40  41 SW12      30.08R
LIMON          CLEAR     56  49  77 NW6       30.08R
ASPEN          CLOUDY    45  35  68 S7        30.31S
LARAMIE        CLOUDY    47  32  56 S5        30.24R
CASPER         CLEAR     49  37  63 NW6       30.13R
CHEYENNE       CLOUDY    61  30  31 W9        30.14R
SCOTTSBLUFF    CLOUDY    61  45  55 VRB5      30.05R
GRAND ISLAND   SUNNY     68  63  84 S13       29.89F
OMAHA          CLOUDY    70  64  81 E10       29.87F THUNDER
SIOUX FALLS    MOSUNNY   69  65  86 CALM      29.92S
PIERRE         CLOUDY    65  54  67 E5        29.94F
RAPID CITY     CLEAR     58  48  69 NW10      30.07R
BISMARCK       CLOUDY    55  49  80 CALM      30.05R
KANSAS CITY    LGT RAIN  69  66  90 E14       29.99S
HILL CITY      SUNNY     73  65  75 SW8       29.89R
WICHITA        MOSUNNY   74  69  85 SW6       29.94R
DODGE CITY     SUNNY     71  64  78 S9        29.97R
OKLAHOMA CITY  PTSUNNY   74  71  91 S6        29.98S
DALLAS         PTSUNNY   82  70  66 S8        29.98R
AMARILLO       PTCLDY    68  60  75 SW10      30.05S
$$




USA.gov is the U.S. government's official web portal to all federal, state and local government web resources and services.